User: anonymous   Login
Location: Theydon Bois
(51.6750°N, 0.1050°E)
Time: 03:58:48
(UTC+01:00)
Language:

Cosmos 2237 Rocket - Orbit

View from above orbital plane
View from above orbital plane
View from above satellite
View from above satellite

Ground track
Ground track

The orbit data is extracted from the following two-line orbital elements,

1 22566U 93016B   18226.52729927 -.00000187  00000-0 -71904-4 0  9995
2 22566  71.0050 258.2957 0011715 219.9168 140.1094 14.14957279311154
Epoch (UTC): 14 August 2018 12:39:18
Eccentricity: 0.0011715
inclination: 71.0050°
perigee height: 834 km
apogee height: 851 km
right ascension of ascending node: 258.2957°
argument of perigee: 219.9168°
revolutions per day: 14.14957279
mean anomaly at epoch: 140.1094°
orbit number at epoch: 31115

The dashed part of the orbit path shows where the satellite is in the earth's shadow,  

DLR